Regional Weather Roundup
Issued by NWS

Home | Current Version | Previous Version | Text Only | Print | Product List | Glossary Off
Versions: 1 2 3 4 5 6 7 8 9 10 11 12 13 14 15 16 17 18 19 20 21 22 23 24 25 26 27 28 29 30 31 32 33 34 35 36 37 38 39 40 41 42 43 44 45 46 47 48 49 50

000
ASUS43 KDMX 051208
RWRIA

WEATHER ROUNDUP FOR IOWA
NATIONAL WEATHER SERVICE DES MOINES IA
700 AM CDT THU MAY 05 2016

NOTE: "FAIR" INDICATES FEW OR NO CLOUDS BELOW 12,000 FEET WITH NO
SIGNIFICANT WEATHER AND/OR OBSTRUCTIONS TO VISIBILITY.

* - THESE STATIONS ARE NOT NWS STATIONS...THUS NOT UNDER NWS
QUALITY CONTROL.  THEY ALSO DO NOT REPORT WEATHER SUCH
AS PRECIPITATION OR FOG.

IAZ001>003-012>014-020>022-031>034-043>046-051300-
   NORTHWEST IOWA

CITY           SKY/WX    TMP DP  RH WIND       PRES   REMARKS
CARROLL *      CLEAR     39  37  93 CALM      30.06R
CHEROKEE *     CLEAR     38  38 100 CALM      30.06R
DENISON *      CLEAR     39  36  87 CALM      30.05R
LE MARS *      CLEAR     39  39 100 CALM      30.07R
ORANGE CITY *  CLEAR     46  36  66 CALM      30.05S
SHELDON *      CLEAR     39  36  87 CALM      30.04R
SIOUX CITY     CLEAR     42  37  82 CALM      30.07R
6HR MIN TEMP:  37; 6HR MAX TEMP:  47;

SPENCER        CLEAR     37  34  89 W3        30.05R
6HR MIN TEMP:  36; 6HR MAX TEMP:  45;

STORM LAKE *   CLEAR     45  34  65 S3        30.06R
$$

IAZ055>058-069>071-079>083-090>094-051300-
   SOUTHWEST IOWA

CITY           SKY/WX    TMP DP  RH WIND       PRES   REMARKS
ATLANTIC *     CLEAR     39  37  93 CALM      30.07R
AUDUBON *      CLEAR     39  36  87 CALM      30.07R
CLARINDA *       N/A    N/A N/A N/A MISG        N/A
COUNCIL BLFS * CLEAR     46  39  76 CALM      30.07R
CRESTON *      CLEAR     45  36  70 N3        30.06R
HARLAN  *      CLEAR     39  37  93 CALM      30.09R
LAMONI         CLEAR     45  37  73 N6        30.05R
6HR MIN TEMP:  44; 6HR MAX TEMP:  48;

RED OAK *      CLEAR     41  39  93 CALM      30.07R
SHENANDOAH *   CLEAR     43  43 100 CALM      30.07R
$$

IAZ047>049-059>061-072>074-084-051300-
   CENTRAL IOWA

CITY           SKY/WX    TMP DP  RH WIND       PRES   REMARKS
AMES           CLEAR     40  35  83 CALM      30.06R
6HR MIN TEMP:  38; 6HR MAX TEMP:  48;

ANKENY *       CLEAR     39  37  93 CALM      30.06R
BOONE *        CLEAR     45  32  61 NE5       30.05R
CHARITON *     CLEAR     45  36  70 N5        30.05R
DES MOINES     PTCLDY    47  34  60 CALM      30.06R
6HR MIN TEMP:  44; 6HR MAX TEMP:  55;

GRINNELL*      CLEAR     39  32  75 NW3       30.06R
KNOXVILLE *    CLEAR     41  37  87 NW3       30.04R
MARSHALLTOWN   CLEAR     40  31  70 NE6       30.04R
6HR MIN TEMP:  32; 6HR MAX TEMP:  46;

NEWTON *       CLEAR     45  30  57 N5        30.05R
PERRY *          N/A     43  41  93 NW3       30.06R
$$

IAZ004>006-015-016-023>025-035-036-051300-
   NORTH CENTRAL IOWA

CITY           SKY/WX    TMP DP  RH WIND       PRES   REMARKS
ALGONA *       CLEAR     43  39  87 SE3       30.06R
CLARION *      CLEAR     39  30  70 CALM      30.06R
ESTHERVILLE    CLEAR     40  36  86 S3        30.04R
6HR MIN TEMP:  38; 6HR MAX TEMP:  43;

FORT DODGE *   CLEAR     37  34  87 CALM      30.06R
MASON CITY     CLOUDY    38  32  79 CALM      30.07R
6HR MIN TEMP:  34; 6HR MAX TEMP:  42;

FOREST CITY *  CLEAR     36  34  93 CALM      30.05R
WEBSTER CITY * CLEAR     39  32  75 CALM      30.04R
IOWA FALLS *     N/A     41  32  70 CALM      30.06S
$$

IAZ007>011-017>019-026>030-037>042-050>054-066-051300-
   NORTHEAST IOWA

CITY           SKY/WX    TMP DP  RH WIND       PRES   REMARKS
CEDAR RAPIDS   SUNNY     39  33  79 N5        30.03R
6HR MIN TEMP:  36; 6HR MAX TEMP:  48;

CHARLES CITY * CLEAR     39  32  75 CALM      30.06R
CLINTON *      SUNNY     40  37  89 N6        30.02R
DECORAH *      SUNNY     37  30  75 CALM      30.05R
DUBUQUE        SUNNY     42  34  73 N8        30.03R
6HR MIN TEMP:  39; 6HR MAX TEMP:  47;

MONTICELLO *   SUNNY     41  36  81 N6        30.04R
OELWEIN *      SUNNY     41  30  65 N8        30.06R
WATERLOO       CLEAR     37  33  85 CALM      30.05R
6HR MIN TEMP:  33; 6HR MAX TEMP:  44;

$$

IAZ064-065-067-068-078-051300-
   EAST CENTRAL IOWA

CITY           SKY/WX    TMP DP  RH WIND       PRES   REMARKS
DAVENPORT      SUNNY     40  35  83 N3        30.02R
6HR MIN TEMP:  37; 6HR MAX TEMP:  45;

IOWA CITY      SUNNY     46  33  60 N7        30.05R
6HR MIN TEMP:  43; 6HR MAX TEMP:  50;

MT. PLEASANT * SUNNY     45  37  73 N5        30.03R
MUSCATINE *    SUNNY     43  36  75 N5        30.03R
QUAD CITIES    SUNNY     45  36  70 NE3       30.01R
6HR MIN TEMP:  38; 6HR MAX TEMP:  51;

$$

IAZ062-063-075>077-085>089-095>099-051300-
   SOUTHEAST IOWA

CITY           SKY/WX    TMP DP  RH WIND       PRES   REMARKS
BURLINGTON     SUNNY     43  37  79 N6        30.01R
6HR MIN TEMP:  40; 6HR MAX TEMP:  50;

FAIRFIELD *    CLEAR     41  34  75 N7        30.03R
FORT MADISON * SUNNY     43  36  75 NW5       30.03R
KEOKUK *       SUNNY     45  36  70 NW5       30.01R
OSKALOOSA *      N/A     41  33  74 N7        30.05R
OTTUMWA        CLEAR     38  31  76 NW6       30.04R WCI  33
6HR MIN TEMP:  35; 6HR MAX TEMP:  46;

WASHINGTON *   SUNNY     43  36  75 N7        30.04R
$$

ABBREVIATIONS USED IN REMARKS
   TC - TEMPERATURES IN CELSIUS
  WCI - WIND CHILL INDEX
   HX - HEAT INDEX
  VSB - VISIBILITY
$$




USA.gov is the U.S. government's official web portal to all federal, state and local government web resources and services.